Location: Newark
(50.4348°N, 30.5552°E)
Time: 14:36:27
(UTC+00:00)

Tiros 1 despin weight - Pass Details

Date: 29 January 2020
Orbit: 594 x 642 km, 48.2° (Epoch: 28 February)

Event Time Altitude Azimuth Distance (km) Brightness Sun altitude
Rises 10:47:52 0° 268° (W) 2,872 ? 21.1°
Reaches altitude 10° 10:50:10 10° 265° (W) 1,975 ? 21.0°
Maximum altitude 10:54:40 66° 184° (S) 678 ? 20.9°
Drops below altitude 10° 10:59:15 10° 102° (ESE) 2,005 ? 20.7°
Sets 11:01:35 0° 100° (E) 2,919 ? 20.6°
